This is the latest recevied weather packets stored in our database for station/object IW0HP-3. If no packets are shown the sender has not sent any weather packets the latest 10 day(s).
| Time | Temp. | Humidity | Pressure | Rain* | Wind** | Luminosity | Snow |
|---|---|---|---|---|---|---|---|
| 1777950646 | 15.56° C | 67% | 1017.1 hPa | - | - | - | - |
| 1777949442 | 16.11° C | 58% | 1017 hPa | - | - | - | - |
| 1777945828 | 16.11° C | 70% | 1017.3 hPa | - | - | - | - |
| 1777944623 | 16.11° C | 66% | 1017.4 hPa | - | - | - | - |
| 1777943418 | 16.67° C | 64% | 1017.4 hPa | - | - | - | - |
| 1777942213 | 16.67° C | 60% | 1017.3 hPa | - | - | - | - |
| 1777941008 | 16.67° C | 58% | 1017.5 hPa | - | - | - | - |
| 1777939803 | 16.67° C | 58% | 1017.8 hPa | - | - | - | - |
| 1777938598 | 17.22° C | 56% | 1018.2 hPa | - | - | - | - |
| 1777937394 | 17.22° C | 55% | 1018.3 hPa | - | - | - | - |
| 1777936189 | 17.22° C | 58% | 1018.5 hPa | - | - | - | - |
| 1777934984 | 17.22° C | 57% | 1018.8 hPa | - | - | - | - |
| 1777933780 | 17.22° C | 57% | 1018.8 hPa | - | - | - | - |
| 1777932575 | 17.22° C | 57% | 1018.7 hPa | - | - | - | - |
| 1777931371 | 17.22° C | 58% | 1018.8 hPa | - | - | - | - |
| 1777928960 | 17.78° C | 58% | 1018.9 hPa | - | - | - | - |
| 1777927756 | 17.78° C | 58% | 1018.9 hPa | - | - | - | - |
| 1777925347 | 17.78° C | 58% | 1019 hPa | - | - | - | - |
| 1777924142 | 17.78° C | 58% | 1018.7 hPa | - | - | - | - |
| 1777922937 | 17.78° C | 59% | 1018.6 hPa | - | - | - | - |
| 1777921732 | 17.78° C | 58% | 1018.7 hPa | - | - | - | - |
| 1777920528 | 18.33° C | 56% | 1018.5 hPa | - | - | - | - |
| 1777919323 | 18.33° C | 55% | 1018.4 hPa | - | - | - | - |
| 1777918119 | 18.33° C | 53% | 1018.2 hPa | - | - | - | - |
| 1777916914 | 18.89° C | 52% | 1018.3 hPa | - | - | - | - |
* Rain since midnight (hover to see other rain measurements)
** Current wind speed in m/s (hover to see current wind gust speed)